TimeCST,TemperatureF,Dew PointF,Humidity,Sea Level PressureIn,VisibilityMPH,Wind Direction,Wind SpeedMPH,Gust SpeedMPH,PrecipitationIn,Events,Conditions,WindDirDegrees,DateUTC
12:15 AM,43.3,35.2,73,30.30,10.0,SSE,8.1,-,N/A,,Clear,160,2012-11-19 06:15:00
12:35 AM,43.9,35.6,73,30.30,10.0,SSE,5.8,-,N/A,,Clear,150,2012-11-19 06:35:00
12:55 AM,43.7,35.2,72,30.29,10.0,South,6.9,-,N/A,,Clear,180,2012-11-19 06:55:00
1:15 AM,43.9,35.6,73,30.28,10.0,South,8.1,-,N/A,,Clear,170,2012-11-19 07:15:00
1:35 AM,44.6,35.6,71,30.28,10.0,South,9.2,-,N/A,,Clear,170,2012-11-19 07:35:00
1:55 AM,43.7,35.6,73,30.28,10.0,South,8.1,-,N/A,,Clear,170,2012-11-19 07:55:00
2:15 AM,42.8,35.6,76,30.27,10.0,SSE,8.1,-,N/A,,Clear,160,2012-11-19 08:15:00
2:35 AM,43.5,35.1,72,30.26,10.0,SSE,8.1,-,N/A,,Clear,160,2012-11-19 08:35:00
2:55 AM,43.9,35.1,71,30.26,10.0,SSE,8.1,-,N/A,,Clear,160,2012-11-19 08:55:00
3:15 AM,45.0,35.1,68,30.26,10.0,SSE,6.9,-,N/A,,Clear,150,2012-11-19 09:15:00
3:35 AM,44.2,35.1,70,30.27,10.0,South,3.5,-,N/A,,Clear,170,2012-11-19 09:35:00
3:55 AM,43.7,35.1,72,30.27,10.0,Calm,Calm,-,N/A,,Clear,0,2012-11-19 09:55:00
4:15 AM,42.8,34.9,74,30.27,10.0,SSE,5.8,-,N/A,,Clear,150,2012-11-19 10:15:00
4:35 AM,41.7,34.5,76,30.26,10.0,South,5.8,-,N/A,,Clear,170,2012-11-19 10:35:00
4:55 AM,41.5,34.7,77,30.26,10.0,SSE,6.9,-,N/A,,Clear,150,2012-11-19 10:55:00
5:15 AM,41.0,34.7,78,30.26,10.0,SE,6.9,-,N/A,,Clear,140,2012-11-19 11:15:00
5:35 AM,41.0,34.5,78,30.26,10.0,SSE,8.1,-,N/A,,Clear,150,2012-11-19 11:35:00
5:55 AM,41.0,34.7,78,30.25,10.0,SSE,6.9,-,N/A,,Clear,150,2012-11-19 11:55:00
6:15 AM,40.5,34.7,80,30.25,10.0,SSE,8.1,-,N/A,,Clear,150,2012-11-19 12:15:00
6:35 AM,40.6,34.9,80,30.25,10.0,SE,6.9,-,N/A,,Clear,140,2012-11-19 12:35:00
6:55 AM,41.0,35.2,80,30.25,10.0,SSE,8.1,-,N/A,,Clear,150,2012-11-19 12:55:00
7:15 AM,42.8,35.6,76,30.25,10.0,SSE,8.1,-,N/A,,Clear,150,2012-11-19 13:15:00
7:35 AM,42.8,35.4,75,30.25,10.0,SSE,8.1,-,N/A,,Clear,160,2012-11-19 13:35:00
7:55 AM,43.5,35.8,74,30.25,10.0,South,6.9,-,N/A,,Clear,180,2012-11-19 13:55:00
8:15 AM,43.7,36.1,75,30.26,10.0,South,5.8,-,N/A,,Clear,170,2012-11-19 14:15:00
8:35 AM,45.0,36.3,72,30.26,10.0,South,6.9,-,N/A,,Clear,170,2012-11-19 14:35:00
8:55 AM,45.3,36.7,72,30.26,10.0,South,6.9,-,N/A,,Clear,190,2012-11-19 14:55:00
9:15 AM,46.8,37.4,70,30.25,10.0,South,8.1,-,N/A,,Clear,180,2012-11-19 15:15:00
9:35 AM,48.4,37.9,67,30.25,10.0,South,5.8,-,N/A,,Clear,180,2012-11-19 15:35:00
9:55 AM,50.0,39.0,66,30.25,10.0,South,8.1,-,N/A,,Clear,190,2012-11-19 15:55:00
10:15 AM,51.3,38.3,61,30.24,10.0,SSW,8.1,-,N/A,,Clear,210,2012-11-19 16:15:00
10:35 AM,52.9,38.5,58,30.24,10.0,South,10.4,-,N/A,,Clear,190,2012-11-19 16:35:00
10:55 AM,52.9,38.5,58,30.23,10.0,South,9.2,-,N/A,,Clear,190,2012-11-19 16:55:00
11:15 AM,53.6,38.3,56,30.21,10.0,SW,9.2,-,N/A,,Clear,220,2012-11-19 17:15:00
11:35 AM,55.0,38.8,54,30.21,10.0,SW,11.5,-,N/A,,Clear,220,2012-11-19 17:35:00
11:55 AM,55.0,38.5,54,30.20,10.0,SSW,6.9,-,N/A,,Clear,210,2012-11-19 17:55:00
12:15 PM,55.8,39.2,54,30.19,10.0,SW,9.2,-,N/A,,Clear,230,2012-11-19 18:15:00
12:35 PM,55.4,39.0,54,30.19,10.0,SW,12.7,-,N/A,,Scattered Clouds,230,2012-11-19 18:35:00
12:55 PM,54.3,41.4,62,30.19,10.0,SW,15.0,-,N/A,Rain,Light Rain,230,2012-11-19 18:55:00
1:15 PM,52.2,42.1,69,30.19,10.0,SW,9.2,-,N/A,Rain,Light Rain,220,2012-11-19 19:15:00
1:35 PM,51.8,42.4,70,30.17,10.0,South,5.8,-,N/A,Rain,Light Rain,180,2012-11-19 19:35:00
1:55 PM,51.6,43.3,73,30.17,10.0,SW,6.9,-,N/A,,Light Drizzle,230,2012-11-19 19:55:00
2:15 PM,51.1,43.3,75,30.16,10.0,SSW,6.9,-,N/A,,Overcast,210,2012-11-19 20:15:00
2:35 PM,51.4,43.5,74,30.16,10.0,South,5.8,-,N/A,,Overcast,190,2012-11-19 20:35:00
2:55 PM,51.8,43.2,72,30.15,10.0,South,4.6,-,N/A,,Mostly Cloudy,170,2012-11-19 20:55:00
3:15 PM,52.2,43.5,72,30.15,10.0,SSE,4.6,-,N/A,,Overcast,160,2012-11-19 21:15:00
3:35 PM,52.2,43.7,73,30.14,10.0,SSE,10.4,-,N/A,,Overcast,160,2012-11-19 21:35:00
3:55 PM,51.6,41.9,69,30.14,10.0,SSE,6.9,-,N/A,,Mostly Cloudy,150,2012-11-19 21:55:00
4:15 PM,50.9,41.9,71,30.14,10.0,SSE,6.9,-,N/A,,Scattered Clouds,150,2012-11-19 22:15:00
4:35 PM,50.4,41.7,72,30.13,10.0,SSE,6.9,-,N/A,,Mostly Cloudy,150,2012-11-19 22:35:00
4:55 PM,50.4,41.9,73,30.13,10.0,SSE,9.2,-,N/A,,Overcast,150,2012-11-19 22:55:00
5:15 PM,50.4,41.4,71,30.13,10.0,SSE,10.4,-,N/A,,Overcast,150,2012-11-19 23:15:00
5:35 PM,50.2,41.7,73,30.13,7.0,SE,9.2,-,N/A,Rain,Rain,140,2012-11-19 23:35:00
5:55 PM,49.5,42.1,76,30.13,10.0,SSE,8.1,-,N/A,,Overcast,150,2012-11-19 23:55:00
6:15 PM,49.3,42.1,76,30.12,10.0,SSE,10.4,-,N/A,,Overcast,150,2012-11-20 00:15:00
6:35 PM,50.0,41.9,74,30.13,10.0,SSE,8.1,-,N/A,,Overcast,160,2012-11-20 00:35:00
6:55 PM,50.0,42.1,74,30.12,10.0,South,9.2,-,N/A,,Overcast,170,2012-11-20 00:55:00
7:15 PM,50.4,42.4,74,30.13,10.0,South,10.4,-,N/A,,Overcast,180,2012-11-20 01:15:00
7:35 PM,49.6,42.6,77,30.12,10.0,South,9.2,-,N/A,,Overcast,190,2012-11-20 01:35:00
7:55 PM,49.6,42.8,77,30.12,10.0,South,11.5,-,N/A,,Overcast,190,2012-11-20 01:55:00
8:15 PM,49.6,42.8,77,30.12,7.0,South,11.5,-,N/A,Rain,Rain,190,2012-11-20 02:15:00
8:35 PM,49.5,43.0,78,30.12,10.0,South,9.2,-,N/A,,Overcast,190,2012-11-20 02:35:00
8:55 PM,49.3,43.0,79,30.11,10.0,South,8.1,-,N/A,,Overcast,190,2012-11-20 02:55:00
9:15 PM,49.3,42.8,78,30.12,10.0,SSW,8.1,-,N/A,,Overcast,200,2012-11-20 03:15:00
9:35 PM,49.5,42.4,77,30.12,10.0,South,4.6,-,N/A,,Overcast,190,2012-11-20 03:35:00
9:55 PM,49.3,42.8,78,30.11,10.0,South,5.8,-,N/A,,Overcast,190,2012-11-20 03:55:00
10:15 PM,48.9,42.8,79,30.11,10.0,South,4.6,-,N/A,,Overcast,190,2012-11-20 04:15:00
10:35 PM,48.7,43.0,80,30.10,10.0,South,4.6,-,N/A,,Overcast,180,2012-11-20 04:35:00
10:55 PM,48.7,42.8,80,30.10,10.0,SSE,6.9,-,N/A,,Overcast,160,2012-11-20 04:55:00
11:15 PM,48.7,42.8,80,30.10,10.0,South,5.8,-,N/A,,Overcast,170,2012-11-20 05:15:00
11:35 PM,48.6,43.0,81,30.10,10.0,South,5.8,-,N/A,,Overcast,180,2012-11-20 05:35:00
11:55 PM,49.1,42.8,79,30.10,10.0,South,5.8,-,N/A,,Overcast,190,2012-11-20 05:55:00